Gaylord, MI

10:58 PM EDT on August 22, 2017 (GMT -0400)
Otsego County

Weather History for KGLR - May, 2013

Change the Weather History Date:

Monday, May 6, 2013

  Actual Average Record
Temperature  
Mean Temperature 58 °F -  
Max Temperature 78 °F 62 °F 87 °F (1959)
Min Temperature 39 °F 37 °F 23 °F (1954)
Degree Days  
Heating Degree Days 7    
Growing Degree Days 8 (Base 50)    
Moisture  
Dew Point 33 °F    
Average Humidity 41    
Maximum Humidity 82    
Minimum Humidity 15    
Precipitation  
Precipitation 0.00 in - - ()
Sea Level Pressure  
Sea Level Pressure 30.07 in    
Wind  
Wind Speed 2 mph (East)    
Max Wind Speed 9 mph    
Max Gust Speed 17 mph    
Visibility 10 miles    
Events      
Averages and records for this station are not official NWS values.
T = Trace of Precipitation, MM = Missing Value Source: NWS Daily Summary

Daily Weather History Graph

Daily Weather History Graph

Search for Another Location

Airport or City:

Trip Planner

Search our weather history database for the weather conditions in past years. The results will help you decide how hot, cold, wet, or windy it might be!

Date:

Astronomy

May. 06, 2013 Rise Set
Actual Time 6:20 AM EDT 8:50 PM EDT
Civil Twilight 5:47 AM EDT 9:24 PM EDT
Nautical Twilight 5:06 AM EDT 10:05 PM EDT
Astronomical Twilight 4:19 AM EDT 10:52 PM EDT
Moon 4:30 AM EDT (5/6) 5:43 PM EDT (5/6)
Length of Visible Light 15h 36m
Length of Day
14h 30m
Waning Crescent, 11% of the Moon is Illuminated
May 6
Waning Crescent
May 9
New
May 18
First Quarter
May 25
Full
May 31
Last Quarter

Hourly Weather History & Observations

Time (EDT) Temp. Dew Point Humidity Pressure Visibility Wind Dir Wind Speed Gust Speed Precip Events Conditions
12:53 AM 54.0 °F 35.1 °F 49% 30.10 in 10.0 mi SE 3.5 mph - N/A   Clear
1:53 AM 48.0 °F 36.0 °F 63% 30.10 in 10.0 mi Calm Calm - N/A   Clear
2:53 AM 46.0 °F 34.0 °F 63% 30.09 in 10.0 mi Calm Calm - N/A   Clear
3:53 AM 46.9 °F 36.0 °F 66% 30.09 in 10.0 mi Calm Calm - N/A   Clear
4:53 AM 43.0 °F 36.0 °F 76% 30.09 in 10.0 mi Calm Calm - N/A   Clear
5:53 AM 42.1 °F 34.0 °F 73% 30.10 in 10.0 mi Calm Calm - N/A   Clear
6:53 AM 39.0 °F 34.0 °F 82% 30.11 in 10.0 mi Calm Calm - N/A   Clear
7:53 AM 50.0 °F 37.9 °F 63% 30.11 in 10.0 mi Calm Calm - N/A   Clear
8:53 AM 61.0 °F 37.9 °F 42% 30.12 in 10.0 mi Calm Calm - N/A   Clear
9:53 AM 66.0 °F 39.0 °F 37% 30.11 in 10.0 mi Calm Calm - N/A   Clear
10:53 AM 69.1 °F 34.0 °F 27% 30.11 in 10.0 mi Variable 5.8 mph - N/A   Clear
11:53 AM 71.1 °F 33.1 °F 25% 30.10 in 10.0 mi Calm Calm - N/A   Clear
12:53 PM 72.0 °F 30.0 °F 21% 30.08 in 10.0 mi Variable 3.5 mph - N/A   Clear
1:53 PM 73.9 °F 26.1 °F 17% 30.07 in 10.0 mi Variable 3.5 mph - N/A   Clear
2:53 PM 77.0 °F 26.1 °F 15% 30.04 in 10.0 mi Calm Calm - N/A   Clear
3:53 PM 75.9 °F 26.1 °F 16% 30.02 in 10.0 mi Variable 3.5 mph - N/A   Clear
4:53 PM 77.0 °F 26.1 °F 15% 30.00 in 10.0 mi SE 5.8 mph - N/A   Clear
5:53 PM 75.0 °F 37.9 °F 26% 30.00 in 10.0 mi North 8.1 mph - N/A   Clear
6:53 PM 72.0 °F 37.0 °F 28% 30.00 in 10.0 mi NNE 9.2 mph 17.3 mph N/A   Clear
7:53 PM 68.0 °F 36.0 °F 31% 30.02 in 10.0 mi NNE 8.1 mph - N/A   Clear
8:53 PM 64.9 °F 36.0 °F 34% 30.03 in 10.0 mi Calm Calm - N/A   Clear
9:53 PM 61.0 °F 36.0 °F 39% 30.05 in 10.0 mi SE 3.5 mph - N/A   Clear
10:53 PM 59.0 °F 27.0 °F 29% 30.06 in 10.0 mi SSE 3.5 mph - N/A   Clear
11:53 PM 55.0 °F 28.9 °F 37% 30.06 in 10.0 mi NE 3.5 mph - N/A   Clear